FW2569 Weather Reports


time (UTC)temp
F
wind
direction
speed
knots
gust
knots
rain 1hr
in
rain 24hr
in
rain mn
in
humidity
%
barometer
mb
20210723160145 85 223 3.5 8.7 0.00 0.53 0.01 84 1020.4
20210723154524 84 222 7.0 12.2 0.00 0.53 0.01 86 1020.4
20210723153125 84 198 2.6 7.8 0.00 0.53 0.01 89 1020.5
20210723150305 81 201 1.7 5.2 0.00 0.53 0.01 94 1020.7
20210723144520 81 205 0.9 5.2 0.00 0.53 0.01 95 1020.7
20210723143154 80 156 0.9 3.5 0.00 0.53 0.01 96 1020.6
20210723141600 79 172 0.9 5.2 0.00 0.53 0.01 97 1020.5
20210723134553 78 165 0.0 2.6 0.00 0.53 0.01 98 1020.4
20210723133023 77 150 0.0 0.9 0.00 0.53 0.01 99 1020.4
20210723131601 76 137 0.0 0.9 0.00 0.53 0.01 99 1020.3
20210723124612 74 137 0.0 0.9 0.00 0.53 0.01 99 1020.2
20210723123034 74 131 0.0 0.9 0.00 0.53 0.01 99 1019.9
20210723121644 73 127 0.0 0.9 0.00 0.53 0.01 99 1019.9
20210723120031 73 148 0.0 0.0 0.00 0.53 0.01 99 1019.8
20210723114532 73 149 0.0 0.0 0.00 0.53 0.01 99 1019.7
20210723113052 72 150 0.0 0.0 0.00 0.53 0.01 99 1019.6
20210723111524 72 149 0.0 0.0 0.00 0.53 0.01 99 1019.4
20210723110159 72 149 0.0 0.0 0.00 0.53 0.01 99 1019.2
20210723104508 72 151 0.0 0.0 0.00 0.53 0.01 99 1019.0
20210723103205 72 169 0.0 0.0 0.00 0.53 0.01 99 1019.2
20210723101529 72 172 0.0 0.0 0.00 0.53 0.01 99 1019.3
20210723100408 73 172 0.0 0.0 0.00 0.53 0.01 99 1019.3
20210723094525 73 172 0.0 0.0 0.00 0.53 0.01 99 1019.2
20210723093045 72 172 0.0 0.0 0.00 0.53 0.01 99 1019.2
20210723091523 72 172 0.0 0.0 0.00 0.53 0.01 99 1019.2
20210723090149 72 173 0.0 0.0 0.00 0.53 0.01 99 1019.3
20210723084649 73 173 0.0 0.0 0.00 0.53 0.01 99 1019.3
20210723083042 73 173 0.0 0.0 0.00 0.53 0.01 99 1019.3
20210723081615 73 173 0.0 0.0 0.00 0.53 0.01 99 1019.3
20210723080136 73 173 0.0 0.0 0.01 0.53 0.01 99 1019.4
20210723074645 73 173 0.0 0.0 0.01 0.53 0.01 99 1019.4
20210723074503 73 173 0.0 0.0 0.01 0.53 0.01 99 1019.4
20210723073111 73 173 0.0 0.0 0.01 0.53 0.01 99 1019.3
20210723071656 73 173 0.0 0.0 0.01 0.53 0.01 99 1019.3
20210723070006 73 173 0.0 0.0 0.00 0.52 0.00 99 1019.3
20210723064703 73 173 0.0 0.0 0.00 0.53 0.00 99 1019.2
20210723063059 73 167 0.0 0.0 0.00 0.53 0.00 99 1019.2
20210723061517 74 155 0.0 0.0 0.00 0.53 0.00 99 1019.1
20210723060344 73 143 0.0 0.0 0.00 0.53 0.00 99 1019.2
20210723054508 73 143 0.0 0.0 0.00 0.53 0.00 99 1019.2
20210723053217 73 143 0.0 0.9 0.00 0.53 0.00 99 1019.1
20210723051529 74 165 0.0 0.0 0.00 0.53 0.00 99 1019.1
20210723050306 74 167 0.0 0.0 0.00 0.53 0.00 99 1019.0
20210723044556 74 156 0.0 0.0 0.00 0.53 0.53 99 1019.0
20210723043137 74 156 0.0 0.0 0.00 0.53 0.53 98 1018.9
20210723041609 74 148 0.0 0.0 0.00 0.53 0.53 99 1018.9
20210723034559 74 162 0.0 0.0 0.00 0.53 0.53 98 1018.9
20210723033143 74 162 0.0 0.0 0.00 0.53 0.53 98 1018.8
20210723033006 74 162 0.0 0.0 0.00 0.53 0.53 98 1018.8
20210723031618 74 195 0.0 0.0 0.00 0.53 0.53 98 1018.7
20210723024553 74 160 0.0 1.7 0.00 0.53 0.53 98 1018.7
20210723023027 74 160 0.0 1.7 0.00 0.53 0.53 98 1018.8
20210723021749 74 148 0.0 1.7 0.01 0.53 0.53 98 1019.0
20210723020014 74 150 0.0 2.6 0.03 0.53 0.53 98 1019.0
20210723014704 74 146 0.0 2.6 0.04 0.53 0.53 98 1019.0
20210723013027 74 124 0.0 0.9 0.06 0.53 0.53 98 1019.0
20210723011657 74 193 0.0 2.6 0.05 0.52 0.52 98 1019.2
20210723011503 74 196 0.0 2.6 0.05 0.52 0.52 98 1019.2
20210723010046 74 205 0.9 3.5 0.23 0.50 0.50 98 1019.4
20210723004626 74 217 0.0 4.3 0.46 0.61 0.49 97 1019.1
20210723003144 74 233 0.0 9.6 0.44 0.59 0.47 97 1019.0
20210723001522 74 221 6.1 13.0 0.44 0.59 0.47 96 1019.2
20210723000032 75 244 15.6 25.2 0.24 0.37 0.27 90 1019.5
20210722234605 82 248 0.0 0.9 0.02 1.54 0.03 82 1017.9
20210722233036 83 139 0.0 4.3 0.02 1.54 0.03 78 1017.5
20210722231504 85 96 2.6 10.4 0.01 1.53 0.03 69 1017.3
20210722224526 91 233 3.5 9.6 0.00 1.52 0.01 63 1017.3
20210722223029 90 217 1.7 7.0 0.00 1.52 0.01 68 1017.2
20210722221714 89 233 4.3 9.6 0.00 1.52 0.01 66 1017.1
20210722221505 89 243 4.3 9.6 0.00 1.52 0.01 67 1017.1
20210722220154 91 207 4.3 9.6 0.00 1.52 0.01 66 1017.1
20210722214636 91 255 3.5 7.8 0.00 1.52 0.01 66 1017.3
20210722213025 91 247 5.2 8.7 0.00 1.52 0.01 63 1017.5
20210722211507 91 228 4.3 8.7 0.00 1.52 0.01 66 1017.7
20210722210157 90 215 2.6 8.7 0.00 1.52 0.01 67 1017.7
20210722204701 90 229 4.3 9.6 0.00 1.52 0.01 66 1017.8
20210722203108 90 252 4.3 8.7 0.00 1.52 0.01 66 1017.8
20210722201519 90 233 1.7 8.7 0.00 1.52 0.01 67 1018.1
20210722200203 90 218 3.5 6.1 0.00 1.52 0.01 66 1018.2
20210722194509 89 235 3.5 8.7 0.00 1.52 0.01 67 1018.4
20210722193112 89 229 4.3 8.7 0.00 1.52 0.01 67 1018.6
20210722191527 89 233 2.6 7.0 0.00 1.52 0.01 68 1018.8
20210722190219 89 219 2.6 10.4 0.00 1.52 0.01 68 1019.1
20210722184618 89 233 7.8 11.3 0.00 1.52 0.01 68 1019.3
20210722183219 88 220 3.5 9.6 0.00 1.52 0.01 66 1019.4
20210722181721 88 219 5.2 10.4 0.00 1.52 0.01 67 1019.6
20210722174553 87 218 6.1 10.4 0.00 1.62 0.01 68 1019.9
20210722173037 88 273 3.5 7.0 0.00 1.62 0.01 68 1020.0
20210722171618 87 247 5.2 8.7 0.00 1.62 0.01 67 1020.1
20210722171506 87 256 5.2 8.7 0.00 1.62 0.01 68 1020.0
20210722170136 86 210 3.5 7.8 0.00 1.62 0.01 70 1020.2
20210722164607 86 203 3.5 9.6 0.00 1.62 0.01 73 1020.2
20210722163048 86 221 3.5 10.4 0.00 1.62 0.01 71 1020.1
20210722161601 85 227 4.3 9.6 0.00 1.62 0.01 70 1020.1